DEIMOS-1

Last updated on Thu Oct 30 2025 00:02:31 GMT+0000 (Coordinated Universal Time)

1 35681U 09041A 25302.48094029 .00001064 00000+0 16575-3 0 9992 2 35681 97.7140 105.1522 0001179 149.9989 210.1288 14.74848893872876
UTC large
Height (km)
Speed (km/s)
/
Latitude / Longitude
Inclination (degrees)
Orbital Period (minutes)
Azimuth
Elevation
Range (km)
Doppler Factor

Next 0 passes for location: London (51.5072 / 0.1276)

Sorry there are no passes over London.